User: anonymous   Login
Location: NJAA Observatory
(40.6819°N, 74.8979°W)
Time: 23:28:53
(UTC-05:00)
Language:

S-56A Canister/Altair - Orbit

View from above orbital plane
View from above orbital plane
View from above satellite
View from above satellite

Ground track
Ground track

The orbit data is extracted from the following two-line orbital elements,

1 00082U 61004B   16337.97247242  .00000092  00000-0  11487-3 0  9993
2 00082  38.8589 303.1510 1167712 326.9006  26.3578 12.25797651649181
Epoch (UTC): 02 December 2016 23:20:21
Eccentricity: 0.1167712
inclination: 38.8589°
perigee height: 639 km
apogee height: 2495 km
right ascension of ascending node: 303.1510°
argument of perigee: 326.9006°
revolutions per day: 12.25797651
mean anomaly at epoch: 26.3578°
orbit number at epoch: 64918

The dashed part of the orbit path shows where the satellite is in the earth's shadow,  

DLR